カタログに戻る

COSMOS 2499 DEB

運用中PO
NORAD 59373·DEBRIS·🇷🇺 Russia

打ち上げ May 23, 2014 から Plesetsk Cosmodrome

Loading…

次のパス (今後24時間)

TLE

古いSource: Space-Track

元期: Aug 31, 2026, 03:21 UTC

1 59373U 14028BT  26243.13964651  .00006243  00000-0  14216-1 0  9994
2 59373  82.5068 175.2392 0289026  33.7505 328.1647 13.11684805157435

AllMySatでCOSMOS 2499 DEBをリアルタイム追跡

Download on the App Store